Regional Weather Roundup
Issued by NWS

Home | Current Version | Previous Version | Text Only | Print | Product List | Glossary Off
Versions: 1 2 3 4 5 6 7 8 9 10 11 12 13 14 15 16 17 18 19 20 21 22 23 24 25 26 27 28

000
ASUS45 KBOU 201510
RWRCO

WEATHER ROUNDUP FOR COLORADO
NATIONAL WEATHER SERVICE DENVER/BOULDER CO
800 AM MST MON NOV 20 2017

NOTE: "FAIR" INDICATES FEW OR NO CLOUDS BELOW 12000 FEET WITH NO
SIGNIFICANT WEATHER AND/OR OBSTRUCTIONS TO VISIBILITY.

COZ001>005-013-030-031-201600-
...NORTHWEST COLORADO...

CITY           SKY/WX    TMP DP  RH WIND       PRES   REMARKS
CRAIG          CLOUDY    24  17  74 SW5       30.12R WCI  18
HAYDEN         CLOUDY    25  15  66 E8        30.13R WCI  16
MEEKER         CLOUDY    27  20  75 CALM      30.11F
RABBIT EARS PA FAIR      23   5  46 W7        30.12S WCI  15
STEAMBOAT SPGS FAIR      16  12  84 CALM      30.12S
WALDEN         FAIR      30   7  37 S9G17     30.08R WCI  22
$$

COZ006>008-011-201600-
...WEST CENTRAL VALLEYS...

CITY           SKY/WX    TMP DP  RH WIND       PRES   REMARKS
GRAND JUNCTION FAIR      27  18  69 NE5       30.18S WCI  22
MONTROSE       FAIR      26  19  74 S6        30.20F WCI  19
EAGLE          FAIR      17  13  84 CALM      30.22S
RIFLE          FAIR      22  17  81 CALM      30.20S
DELTA          FAIR      28  17  64 CALM      30.21R
NUCLA          FAIR      25   9  50 SE3       30.22S
$$

COZ017>023-064>068-201600-
...SOUTHWEST COLORADO...

CITY           SKY/WX    TMP DP  RH WIND       PRES   REMARKS
DURANGO        FAIR      21  13  71 N6        30.19F WCI  13
CORTEZ         FAIR      19  12  74 CALM      30.20R
PAGOSA SPRINGS FAIR      23  14  68 CALM      30.20S
TELLURIDE      NOT AVBL
WOLF CREEK PAS FAIR      27 -13  17 W8        30.30S WCI  18
$$

COZ009-010-012-014-032>034-037-058>063-201600-
...CENTRAL COLORADO...

CITY           SKY/WX    TMP DP  RH WIND       PRES   REMARKS
ASPEN          FAIR      22  13  68 CALM      30.15F
BUENA VISTA    FAIR      42  -7  12 W10G16    30.04F
COPPER MTN     FAIR      30  -9  17 W16G23    30.20F WCI  19
BERTHOUD PASS  FAIR      21  10  63 NW37G49   30.12S WCI   1
COTTONWOOD PAS FAIR      43 -22   6 NW8G36    30.06F
GUNNISON       FAIR       9   5  84 CALM      30.27F
KREMMLING      FAIR      19  14  79 CALM      30.17F
LEADVILLE      FAIR      27  -8  21 N7        30.15F WCI  19
MONARCH PASS   FAIR      25  -8  24 W45G58    30.25F WCI   5
SALIDA         FAIR      42  -7  12 S3        30.12F
SUNLIGHT       FAIR      27  -4  26 SW14G21   30.23S WCI  15
WILKERSON PASS FAIR      30 -15  13 W15G30    30.06F WCI  19
$$

COZ069>075-201600-
...SAN LUIS VALLEY/SANGRE DE CRISTO MOUNTAINS...

CITY           SKY/WX    TMP DP  RH WIND       PRES   REMARKS
ALAMOSA        FAIR      15   9  76 CALM      30.17S
DEL NORTE      FAIR      26   2  35 W15G24    30.17S WCI  14
LA VETA PASS   FAIR      23   5  46 SW31G37     N/A  WCI   5
SAGUACHE       FAIR      19   3  49 CALM      30.17S
$$

COZ035-036-038>040-201600-
...NORTHERN COLORADO FRONT RANGE...

CITY           SKY/WX    TMP DP  RH WIND       PRES   REMARKS
DENVER INTL AP PTSUNNY   48   3  15 SW9       29.83F
DMNS CITY PARK   N/A     51   0  12 SE7       29.83F
AURORA         PTSUNNY   48   2  15 SW12      29.85R
FRONT RANGE AP PTSUNNY   39  16  38 VRB7      29.85F
ERIE MUNI ARPT FAIR      42   5  22 S5        29.86F
BOULDER MUN AP FAIR      50   5  16 E7        29.80S
CENTENNIAL     PTSUNNY   38  14  37 SE10      29.87F
BROOMFIELD     PTSUNNY   57  -2   9 SW16      29.82F
FORT COLLINS   FAIR      34  20  56 N7        29.81S WCI  28
LONGMONT       FAIR      58  -1   9 W7        29.80F
$$

COZ041-046-047-076>085-087-088-201600-
...PIKES PEAK/PALMER DIVIDE AND SOUTHERN FOOTHILLS...

CITY           SKY/WX    TMP DP  RH WIND       PRES   REMARKS
COLO. SPRINGS  PTSUNNY   51  -3  10 W9G26     29.91F
A. F. ACADEMY  FAIR      50 -12   7 W13G24    29.92S
SCHRIEVER AFB  FAIR      44  -3  14 NE3       29.92F
CHEYENNE MTN   FAIR      49  -7   9 SW7       29.89F
ELLICOTT       NOT AVBL
FALCON         FAIR      43  -6  12 CALM      29.94F
FORT CARSON    FAIR      42   1  18 NW7       29.89F
LIMON          FAIR      36  14  40 NW8       29.88F
MONUMENT HILL  FAIR      41   0  17 SW12      29.94S
CANON CITY     FAIR      45   3  18 NW10      29.92F
WALSENBURG     FAIR      50   3  14 W25G33    29.95F
TRINIDAD       FAIR      37  12  35 SW12      29.97S
$$

COZ042>045-048>051-090-091-201600-
...NORTHEAST COLORADO...

CITY           SKY/WX    TMP DP  RH WIND       PRES   REMARKS
GREELEY ARPT   FAIR      25  21  85 NE5       29.82F WCI  19
AKRON          FAIR      44   9  23 SW10      29.81F
BURLINGTON     FAIR      37  11  34 W9        29.84S
WRAY           NOT AVBL
YUMA           FAIR      41  12  30 W10       29.80F
STERLING       FAIR      30  21  69 SW10      29.79F WCI  21
HOLYOKE        FAIR      41  18  38 W12       29.78S
FORT MORGAN    FAIR      35  17  47 W10       29.81F WCI  27
$$

COZ086-089-092>099-201600-
...SOUTHEAST COLORADO...

CITY           SKY/WX    TMP DP  RH WIND       PRES   REMARKS
PUEBLO         FAIR      33  17  51 CALM      29.90S
LA JUNTA       FAIR      42  12  29 CALM      29.90S
LAMAR          FAIR      36  18  48 W9        29.88F
SPRINGFIELD      N/A     49  12  22 NW10      29.90S
$$




USA.gov is the U.S. government's official web portal to all federal, state and local government web resources and services.